• Processing (Info)

  • MPEC 2013-T95 : 2013 TR132

    The following Minor Planet Electronic Circular may be linked-to from your own Web pages, but must not otherwise be redistributed electronically.

    A form allowing access to any MPEC is at the bottom of this page.


    Read MPEC 2013-T94 Read MPEC 2013-T96


    M.P.E.C. 2013-T95                                Issued 2013 Oct. 13, 14:38 UT
    
         The Minor Planet Electronic Circulars contain information on unusual
             minor planets and routine data on comets.  They are published
       on behalf of Commission 20 of the International Astronomical Union by the
              Minor Planet Center, Smithsonian Astrophysical Observatory,
                              Cambridge, MA 02138, U.S.A.
    
                 Prepared using the Tamkin Foundation Computer Network
    
                                  MPC@CFA.HARVARD.EDU
                URL http://www.minorplanetcenter.net/    ISSN 1523-6714
    
                                      2013 TR132
    
    Observations:
         K13TD2R* C2013 10 09.48900 08 18 31.93 +18 26 50.0          20.6 VqET095G96
         K13TD2R  C2013 10 09.49565 08 18 33.33 +18 27 32.6          20.6 VqET095G96
         K13TD2R  C2013 10 09.50227 08 18 34.72 +18 28 14.7          20.9 VqET095G96
         K13TD2R  C2013 10 09.50894 08 18 36.09 +18 28 57.2          20.8 VqET095G96
         K13TD2R  C2013 10 09.51408 08 18 37.20 +18 29 29.8          20.8 VqET095G96
         K13TD2R  C2013 10 09.51463 08 18 37.34 +18 29 32.6          20.9 VqET095G96
         K13TD2R  C2013 10 09.51517 08 18 37.43 +18 29 37.0          20.9 VqET095G96
         K13TD2R  C2013 10 09.51572 08 18 37.54 +18 29 40.1          20.8 VqET095G96
         K13TD2R  C2013 10 12.46987 08 29 48.97 +23 37 59.7          20.2 VqET095G96
         K13TD2R  C2013 10 12.47630 08 29 50.44 +23 38 39.8          20.3 VqET095G96
         K13TD2R  C2013 10 12.48272 08 29 51.93 +23 39 19.7          20.5 VqET095G96
         K13TD2R  C2013 10 12.48906 08 29 53.37 +23 39 59.1          20.0 VqET095G96
         K13TD2R  C2013 10 12.51200 08 29 58.57 +23 42 21.4          20.3 VqET095G96
         K13TD2R  C2013 10 12.51267 08 29 58.73 +23 42 25.7          20.1 VqET095G96
         K13TD2R  C2013 10 12.51336 08 29 58.86 +23 42 29.5          20.1 VqET095G96
         K13TD2R  C2013 10 12.51403 08 29 59.04 +23 42 33.8          20.4 VqET095G96
         K13TD2R KC2013 10 13.41250 08 33 33.50 +25 14 21.2          19.9 RqET095H36
         K13TD2R KC2013 10 13.42201 08 33 35.65 +25 15 19.6          20.2 RqET095H36
         K13TD2R KC2013 10 13.43171 08 33 37.99 +25 16 18.1          20.7 RqET095H36
         K13TD2R KC2013 10 13.44162 08 33 40.26 +25 17 20.6          20.2 RqET095H36
    
    Observer details:
    G96 Mt. Lemmon Survey.  Observers E. J. Christensen, A. Boattini.  Measurers
        A. Boattini, E. J. Christensen, A. R. Gibbs, A. D. Grauer, R. E. Hill,
        J. A. Johnson, R. A. Kowalski, S. M. Larson, F. C. Shelly.  1.5-m
        reflector + CCD.
    H36 Sandlot Observatory, Scranton.  Observer G. Hug.  0.56-m reflector + CCD.
    
    Orbital elements:
    2013 TR132                                          PHA, Earth MOID = 0.0320 AU
    Epoch 2013 Nov. 4.0 TT = JDT 2456600.5                  MPC
    M  27.67077              (2000.0)            P               Q
    n   0.56721575     Peri.  329.95480     +0.95191477     -0.01732115
    a   1.4453417      Node    35.37958     +0.24704065     +0.63386906
    e   0.3592687      Incl.   31.88976     -0.18118826     +0.77324640
    P   1.74           H   20.0           G   0.15           U   7
    Residuals in seconds of arc
    131009 G96  0.2-  0.2-    131009 G96  0.4-  0.1-    131012 G96  0.3-  0.6-
    131009 G96  0.2-  0.1+    131012 G96  0.2-  0.4-    131012 G96  0.1+  0.4-
    131009 G96  0.3-  0.0     131012 G96  0.2-  0.2-    131013 H36  0.1-  0.1+
    131009 G96  0.8-  0.1+    131012 G96  0.2+  0.2-    131013 H36  1.2-  0.1+
    131009 G96  0.3-  0.0     131012 G96  0.1+  0.2-    131013 H36  0.3-  1.0-
    131009 G96  0.0   0.7-    131012 G96  0.1-  0.3-    131013 H36  1.0-  0.7+
    131009 G96  0.3-  0.3+    131012 G96  0.1+  0.1-
    
    Ephemeris:
    2013 TR132               a,e,i = 1.45, 0.36, 32                  q = 0.9261
    Date    TT    R. A. (2000) Decl.     Delta      r     Elong.  Phase     V
    2013 09 13    07 11 23.0 -22 44 16   0.3909  0.9267    67.1    90.1    21.0
    ...
    2013 09 28    07 42 32.4 -01 32 06   0.3324  0.9346    68.8    91.9    20.7
    ...
    2013 10 06    08 06 21.2 +12 16 27   0.3193  0.9497    71.8    89.6    20.6
    ...
    2013 10 12    08 27 57.5 +22 49 35   0.3207  0.9656    74.9    86.4    20.5
    2013 10 13    08 31 53.2 +24 32 24   0.3219  0.9686    75.5    85.7    20.5
    2013 10 14    08 35 54.5 +26 13 54   0.3234  0.9717    76.1    85.1    20.5
    ...
    2013 10 20    09 02 02.8 +35 45 53   0.3375  0.9921    79.6    80.8    20.4
    ...
    2013 10 28    09 42 00.4 +46 20 40   0.3680  1.0237    84.1    74.9    20.5
    ...
    2013 11 12    11 07 55.8 +59 24 40   0.4461  1.0935    91.1    64.8    20.7
    
    A. U. Tomatic                (C) Copyright 2013 MPC           M.P.E.C. 2013-T95
    

    Read MPEC 2013-T94 Read MPEC 2013-T96


    MPEC number:

    Enter an MPEC number in one of the following forms:

    • 1997-B01 (the full form)
    • J97B01 (the packed version of the full form)
    • B01 (the abbreviated form)